SCP
0 0 0 0 1 0 0 0 0 0 0 0 0 0 0 0 0 0 0 1 2 2 2 2 2 2 2 2 2 2 2 2 2 2 2 1 1 1 1 1 1 1 2 2 1 1 1 2 2
0 0 0 0 0 0 0 0 0 0 0 0 0 0 0 0 0 0 1 2 2 2 2 2 2 2 2 2 2 2 2 2 2 2 2 2 1 1 1 1 1 1 2 2 1 1 1 2 2
0 0 0 0 0 0 0 0 0 0 0 0 0 0 0 0 0 0 1 3 3 2 1 2 2 2 2 2 2 2 2 2 2 2 2 2 2 2 1 1 2 2 2 2 2 1 2 2 2
0 0 0 0 0 0 0 0 0 0 0 0 0 0 0 0 0 0 2 3 2 2 2 2 2 2 2 2 2 2 2 2 2 2 2 2 2 2 2 2 2 2 2 2 2 1 2 2 2
0 0 0 0 0 0 0 0 0 0 0 0 0 0 0 0 0 0 1 2 2 2 2 1 2 2 2 2 2 2 2 2 2 2 2 2 2 2 2 2 2 2 3 3 2 2 1 2 2
0 0 0 0 0 0 0 0 0 0 0 0 0 0 0 0 0 1 2 3 3 2 2 1 2 2 2 2 2 2 2 3 3 2 2 3 3 2 2 2 2 2 3 3 2 2 2 2 2
0 0 0 0 0 0 0 0 0 0 0 0 0 0 0 0 1 1 3 3 3 2 2 1 1 2 2 2 2 2 2 3 3 3 3 3 3 3 2 2 2 2 3 3 3 2 2 2 2
0 0 0 0 0 0 0 0 0 0 0 0 0 0 0 1 2 3 4 3 3 2 2 2 1 1 1 2 1 1 2 3 3 3 3 2 2 3 3 2 2 2 2 3 3 2 2 2 2
0 0 0 0 0 0 0 0 0 0 0 0 0 1 2 3 3 4 4 3 2 2 2 2 1 1 1 1 1 1 2 3 3 3 2 2 2 3 3 2 2 2 2 2 2 2 2 2 2
0 0 0 0 0 0 0 0 0 0 0 0 0 2 3 4 4 4 3 2 2 2 2 2 1 1 1 1 1 2 2 3 3 3 2 2 2 2 2 2 2 2 2 2 2 2 2 2 1
0 0 0 0 0 0 0 0 0 0 0 0 0 2 3 3 3 2 2 1 2 1 1 1 2 1 1 1 2 2 2 3 3 3 2 2 2 2 2 2 2 2 2 2 2 2 2 1 1
0 0 0 0 0 0 0 0 0 0 0 0 0 1 2 2 2 2 1 1 1 1 1 1 2 2 2 2 2 2 2 3 3 3 2 2 2 3 2 2 2 2 2 2 2 2 2 1 1
0 0 0 0 0 0 0 0 0 0 0 0 0 0 1 1 1 1 1 1 1 1 1 1 1 2 2 2 2 2 2 2 3 3 2 2 3 3 3 2 2 2 3 3 3 2 2 1 1
0 0 0 0 0 0 0 0 0 0 0 0 0 0 0 1 1 1 1 2 2 1 1 1 1 2 2 2 2 1 1 2 3 3 2 2 2 3 3 2 2 3 3 3 3 3 2 2 2
0 0 0 0 0 0 0 0 0 0 0 0 0 0 0 0 0 1 1 2 2 1 1 1 1 2 2 2 2 1 1 2 3 3 2 1 2 3 2 2 2 2 3 3 3 3 3 2 2
0 0 0 0 0 0 0 0 0 0 0 0 0 0 0 0 1 1 1 2 2 2 1 1 1 2 2 2 2 2 1 1 2 3 2 1 1 2 2 1 1 2 3 3 3 3 3 2 2
0 0 0 0 0 0 0 0 0 0 0 0 0 0 0 0 0 1 1 2 2 2 2 1 1 1 2 2 2 2 2 1 2 3 2 1 1 2 2 1 1 1 2 3 3 3 3 2 2
0 0 0 0 0 0 0 0 0 0 0 0 0 0 0 0 0 1 1 2 2 2 2 2 1 1 2 2 2 2 2 1 2 2 2 1 1 2 2 1 1 1 2 3 3 3 3 2 2
0 0 0 0 0 0 0 0 0 0 0 0 0 0 0 0 0 0 1 1 2 2 2 2 2 1 1 2 2 2 1 1 2 2 2 1 1 1 2 1 1 1 2 3 3 3 2 2 1
0 0 0 0 0 0 0 0 0 0 0 0 0 0 0 0 0 0 0 1 1 1 2 2 2 2 1 2 2 2 1 1 2 2 1 1 0 1 1 1 1 1 2 3 3 3 2 2 1
0 0 0 0 0 0 0 0 0 0 0 0 0 0 0 0 0 0 0 1 1 1 2 3 2 2 2 2 2 1 1 1 2 1 1 1 0 1 2 1 1 1 2 3 3 3 2 1 1
0 0 0 0 0 0 0 0 0 0 0 0 0 0 0 0 0 0 0 0 1 1 3 3 3 2 2 2 1 1 1 1 1 1 1 1 0 1 2 1 1 0 1 3 3 3 2 1 1
0 0 0 0 0 0 0 0 0 0 0 0 0 0 0 0 0 0 0 0 1 2 4 4 3 2 2 2 1 1 1 1 1 1 1 1 0 1 1 1 0 0 1 3 3 3 3 1 1
0 0 0 0 0 0 0 0 0 0 0 0 0 0 0 0 0 0 0 0 1 3 5 4 3 2 1 1 1 1 1 1 1 1 1 1 1 1 1 1 0 0 1 3 4 3 3 1 1
0 0 0 0 0 0 0 0 0 0 0 0 0 0 0 0 0 0 0 0 1 4 5 4 2 2 1 1 1 1 1 1 1 0 0 0 0 1 1 1 1 0 1 2 4 4 2 1 0
0 0 0 0 0 0 0 0 0 0 0 0 0 0 0 0 0 0 0 0 1 2 3 3 2 2 1 1 1 1 1 1 1 0 0 1 0 0 1 1 1 0 1 2 4 4 2 1 0
0 0 0 0 0 0 0 0 0 0 0 0 0 0 0 0 0 0 0 0 0 1 2 2 2 1 1 1 1 1 1 1 1 0 0 1 0 0 0 1 0 0 1 3 4 3 2 1 0
0 0 0 0 0 0 0 0 0 0 0 0 0 0 0 0 0 0 0 0 0 0 1 1 1 1 1 1 1 1 0 0 0 0 1 1 0 0 0 0 0 1 2 3 3 2 1 0 0
0 0 0 0 0 0 0 0 0 0 0 0 0 0 0 0 0 0 0 0 0 0 1 0 0 0 0 1 0 0 0 0 0 0 1 0 0 0 0 0 0 1 2 3 2 1 0 0 0
0 0 0 0 0 0 0 0 0 0 0 0 0 0 0 0 0 0 0 0 0 0 1 0 0 0 0 1 0 0 0 0 0 0 1 0 0 0 0 0 1 2 3 3 1 1 0 0 0
Wind_Speed
12 11 8 3 3 6 9 8 5 0 2 4 5 4 4 4 4 6 4 3 4 6 8 8 7 6 5 4 4 4 5 4 4 4 5 5 6 6 6 6 7 7 8 8 8 8 9 9 9
11 9 5 3 5 7 8 8 6 1 4 4 2 2 3 2 5 8 4 3 4 6 7 7 7 6 5 4 4 4 4 4 3 3 4 4 5 6 6 6 7 7 7 8 8 8 9 9 9
11 9 4 4 7 7 3 2 4 4 4 2 0 1 2 2 5 5 4 3 4 5 6 7 7 5 4 4 3 3 3 3 3 3 4 4 4 5 6 6 7 7 7 7 7 8 8 9 9
5 3 4 7 12 9 5 1 3 3 2 0 1 1 0 3 4 5 4 3 3 4 5 6 7 5 4 3 2 2 2 2 2 3 3 4 4 5 5 5 6 6 7 7 7 7 8 9 9
4 4 6 9 13 9 5 2 1 2 3 2 1 2 0 4 6 5 3 2 3 3 4 4 5 4 3 2 1 1 1 2 2 3 3 4 4 4 5 5 6 7 7 7 7 8 8 9 9
3 4 6 10 11 8 5 2 3 4 3 2 2 3 1 4 5 3 3 2 2 3 3 4 4 3 2 2 1 1 2 2 2 3 4 4 4 4 5 6 6 7 7 7 7 8 8 9 9
4 4 8 10 8 5 1 1 2 4 4 1 2 2 1 3 4 3 2 2 3 2 2 2 2 2 1 1 0 1 3 3 3 4 4 4 4 5 5 6 7 7 8 8 8 8 8 9 9
3 4 7 8 8 4 1 1 2 4 5 2 2 3 1 2 3 3 2 2 2 1 1 1 1 1 1 1 1 1 3 4 4 4 4 4 5 5 5 6 7 8 8 8 8 8 9 8 8
3 4 6 5 4 1 2 2 2 3 5 4 4 4 2 2 2 3 2 1 0 1 1 1 1 0 0 1 1 2 3 4 5 5 5 4 3 4 4 5 6 7 8 9 9 8 9 8 8
4 5 5 3 4 5 4 4 4 3 6 6 5 3 1 2 2 3 3 2 1 2 1 1 1 0 0 1 1 2 2 3 3 3 4 3 3 3 3 5 7 7 8 9 9 9 9 6 4
4 6 5 4 4 5 6 5 5 6 8 6 5 3 2 3 3 4 4 3 2 2 1 1 2 2 1 1 1 1 1 2 3 3 4 3 3 2 2 2 3 4 6 5 6 6 5 4 4
5 7 7 6 4 5 7 6 7 9 9 5 6 5 5 5 5 5 5 4 2 1 2 2 2 2 2 2 1 1 2 2 2 3 4 3 2 2 2 2 3 3 3 3 4 4 5 5 5
8 7 7 7 6 7 9 11 10 12 10 8 7 6 6 6 5 5 4 4 3 3 3 3 2 3 3 2 2 2 2 3 3 3 4 4 3 3 3 3 3 3 3 4 4 4 5 5 5
5 7 9 9 9 7 9 11 10 11 8 7 7 7 7 6 6 5 4 4 3 3 3 2 3 3 2 2 2 2 2 3 3 3 4 4 4 4 4 3 3 3 4 4 4 5 4 4 4
5 7 10 9 9 5 5 11 12 11 8 8 8 7 7 7 6 6 4 4 4 3 3 2 3 3 3 3 3 3 3 3 3 4 5 4 4 4 4 3 3 3 3 4 4 4 4 4 4
5 6 6 5 6 5 4 10 7 4 6 8 8 7 6 6 6 4 3 3 3 3 3 3 3 3 4 3 3 3 3 3 3 4 4 5 5 5 4 3 4 4 3 3 3 4 4 4 4
6 6 6 4 5 4 6 10 8 5 6 9 8 7 6 5 5 3 3 3 3 3 3 4 4 4 4 4 3 4 3 3 3 3 3 4 5 6 5 4 4 4 3 3 4 4 3 3 4
3 5 6 6 3 5 9 13 13 9 9 8 7 6 5 4 4 3 2 3 3 4 4 4 4 4 4 3 3 3 3 3 3 3 4 4 4 5 4 4 5 4 4 3 4 4 4 3 3
6 8 10 10 6 7 11 15 15 11 8 7 6 5 4 4 3 2 2 3 3 3 3 4 3 3 3 3 3 3 4 3 4 4 6 5 5 6 5 4 5 5 5 5 5 4 5 4 3
8 10 11 10 5 7 11 17 17 12 9 6 5 4 4 3 2 2 2 2 3 3 3 4 3 3 3 4 4 3 4 4 4 4 5 5 5 6 5 6 5 5 5 5 6 5 4 3 4
9 9 9 9 10 9 9 12 10 6 5 5 5 4 3 3 2 2 2 3 3 3 3 4 4 4 4 4 3 3 2 3 4 4 5 5 6 6 6 6 6 6 6 6 6 6 6 5 5
8 5 6 8 7 6 4 8 6 5 5 6 5 5 4 3 3 2 2 3 3 4 3 3 3 4 4 4 4 6 5 5 5 4 4 5 6 6 6 6 6 7 6 6 7 7 5 6 5
5 4 6 8 7 8 7 7 9 5 5 6 6 5 3 3 2 2 2 2 3 3 2 2 3 4 4 4 5 6 5 5 4 4 5 5 6 7 7 7 7 7 6 7 7 6 6 6 6
3 5 7 6 3 7 8 8 8 4 5 5 4 3 3 2 2 2 2 2 2 2 1 2 4 4 4 4 5 6 6 6 5 6 5 5 5 5 7 7 6 6 6 7 7 7 8 6 6
3 1 2 2 4 8 5 6 7 3 1 3 3 2 1 1 2 2 3 3 2 2 3 3 4 4 4 4 5 5 6 6 7 7 6 5 5 4 7 7 6 6 6 7 7 7 7 7 7
6 5 4 4 4 3 3 7 5 1 3 3 2 1 1 1 2 2 3 3 2 3 3 3 4 5 4 4 5 5 6 4 5 6 6 6 5 5 6 7 6 7 7 7 7 6 7 7 7
4 5 2 2 4 5 7 5 3 1 2 2 0 1 2 3 3 3 3 3 3 3 4 4 5 5 5 5 5 5 6 5 5 6 6 5 5 5 6 6 7 7 8 8 7 7 7 7 7
4 2 2 3 4 6 7 6 3 1 0 1 1 2 3 3 2 2 2 3 3 3 3 4 5 5 5 5 5 4 5 5 6 5 5 6 5 5 6 7 7 7 8 8 8 7 7 8 8
6 4 4 4 4 4 5 4 2 1 1 1 3 3 3 4 4 3 3 3 4 4 4 4 4 4 4 4 4 4 4 5 5 5 5 5 5 5 6 7 7 8 9 8 8 8 8 9 9
5 6 6 5 5 5 5 6 2 2 1 2 3 4 5 4 4 4 3 4 4 4 4 4 3 3 3 3 3 3 4 4 3 4 4 4 4 5 6 6 6 7 8 8 8 8 9 9 9
Wind_Direction
298 269 251 246 236 232 241 242 246 80 49 37 20 355 350 347 15 101 146 62 62 91 99 102 82 74 76 89 97 105 108 111 118 129 138 151 158 159 158 157 157 156 151 144 145 148 147 145 142
291 271 244 235 236 234 237 226 232 58 65 61 28 320 311 19 77 102 103 61 66 82 92 97 91 76 72 85 96 105 114 118 124 137 141 149 162 166 165 164 160 155 151 148 142 140 142 146 146
273 261 238 227 229 235 247 69 86 78 63 42 46 314 316 40 74 92 96 73 69 78 89 95 99 88 76 79 95 100 110 129 139 147 148 153 167 172 170 167 161 157 154 151 149 148 146 144 144
256 228 243 243 245 249 267 6 85 101 109 232 273 270 93 59 71 90 92 73 73 80 86 98 98 95 89 78 87 98 116 126 141 156 163 166 167 167 169 169 164 160 156 155 155 156 154 151 150
248 239 232 238 245 253 275 324 337 221 194 191 255 253 0 80 81 81 72 54 70 78 88 107 101 92 92 92 104 112 137 163 155 168 179 178 177 176 178 176 171 166 163 162 163 165 165 161 159
240 239 238 239 241 236 228 250 271 274 258 220 241 257 251 125 92 62 44 31 66 82 91 113 109 107 96 89 130 189 181 188 189 185 192 191 192 194 189 185 180 176 172 171 175 174 173 172 168
254 251 252 261 263 252 206 51 279 284 280 297 323 285 197 116 76 49 33 21 48 63 79 99 137 140 121 121 157 230 213 204 203 199 199 200 202 203 201 194 188 184 179 177 181 181 179 178 178
290 276 258 257 258 264 5 352 358 323 297 326 312 266 203 94 38 18 18 14 38 46 81 106 111 110 131 180 244 243 228 211 210 206 201 202 203 204 203 200 193 191 187 183 185 184 183 181 184
274 256 255 268 286 324 45 336 317 323 293 279 254 267 296 358 357 343 328 314 291 256 161 141 139 115 101 232 269 236 226 216 212 202 194 194 196 193 195 198 195 197 194 190 187 186 185 182 187
223 244 255 304 332 338 346 325 316 286 268 262 255 249 271 298 297 280 269 261 250 256 233 158 155 178 218 287 267 240 228 215 212 196 186 190 195 198 201 195 192 198 199 194 190 191 184 178 185
229 250 284 299 329 328 309 291 281 274 264 258 271 284 301 285 273 265 262 255 238 243 272 242 180 192 202 208 241 253 236 218 223 207 198 202 189 191 185 176 182 189 194 192 190 186 189 191 186
252 261 274 283 308 299 289 285 278 255 259 289 299 290 273 267 260 257 262 256 238 235 247 247 211 194 199 204 220 244 244 222 215 218 204 197 187 185 179 182 188 189 191 190 185 191 202 200 192
248 261 269 276 272 268 272 267 269 263 263 266 267 267 256 258 262 260 263 264 244 235 231 240 233 209 199 204 219 237 239 240 222 213 210 197 191 187 183 187 192 198 196 191 195 202 200 201 201
295 302 288 275 266 256 263 269 259 255 251 254 253 251 250 248 255 265 264 266 255 241 233 230 236 225 212 206 215 226 232 231 232 218 216 205 195 191 186 192 193 204 202 196 200 205 201 204 204
288 284 274 244 236 235 272 270 239 243 241 249 251 246 248 247 250 256 260 253 259 249 238 236 247 229 224 222 227 232 232 228 228 227 213 208 199 194 189 192 196 203 203 201 205 204 202 207 205
247 254 258 212 207 193 210 267 260 227 229 250 254 249 247 245 244 251 259 259 266 258 244 233 257 251 241 238 235 231 233 236 229 228 219 209 205 193 190 196 203 203 199 202 207 203 200 204 203
220 249 260 255 209 207 222 263 269 255 244 252 253 247 245 248 244 243 248 258 261 261 256 244 236 246 243 239 240 239 231 234 232 231 223 212 212 198 192 197 206 203 198 205 212 206 199 204 207
266 271 281 275 244 267 261 267 274 265 249 251 252 247 247 248 243 228 238 258 259 261 258 251 239 244 249 243 242 246 241 231 225 226 225 217 218 206 199 202 205 202 200 208 207 206 204 207 204
287 287 283 282 293 288 273 276 277 274 256 244 241 247 253 246 242 209 220 242 253 259 261 258 252 253 252 236 229 230 239 234 226 219 220 213 216 211 205 208 206 205 204 208 209 209 202 208 193
259 269 274 284 296 297 280 278 275 263 244 232 227 229 242 248 259 242 239 244 250 261 260 256 255 258 254 241 238 226 234 233 230 222 220 214 210 211 213 205 207 210 207 208 212 208 204 206 192
253 254 271 289 311 278 277 282 257 234 225 222 219 216 229 238 246 261 267 263 261 267 257 258 252 253 249 249 255 255 244 238 231 224 219 216 212 214 211 212 213 212 208 208 210 209 207 203 205
264 270 277 288 296 285 284 290 271 228 210 213 210 206 207 230 237 252 273 280 278 277 262 248 257 250 245 240 240 239 236 236 233 225 218 217 215 218 212 213 217 214 212 213 215 213 208 199 207
257 308 284 275 271 279 249 251 274 218 214 211 204 197 186 197 216 258 280 284 290 280 253 240 259 256 246 243 239 239 242 243 238 232 222 220 218 219 216 215 219 215 214 216 218 211 210 208 210
273 285 270 252 255 261 230 221 272 229 209 195 183 181 174 180 202 256 272 280 300 308 281 258 262 260 255 244 241 242 245 245 241 239 228 222 220 219 216 218 220 220 216 213 215 213 212 214 216
219 236 289 245 221 247 225 220 249 270 154 146 151 164 180 207 221 254 279 292 309 298 280 267 267 274 269 251 241 243 247 246 242 241 230 226 222 222 217 217 217 222 220 215 214 213 214 213 217
208 210 208 243 256 284 275 240 242 158 86 87 98 121 251 257 255 261 274 279 288 287 283 274 270 270 270 262 252 242 240 243 245 242 236 228 225 226 220 216 221 226 222 222 216 216 219 217 218
198 218 251 286 287 277 252 240 246 143 112 108 87 324 292 262 259 266 278 289 288 286 287 283 277 273 266 262 260 248 240 241 249 249 241 236 226 229 227 225 227 230 225 224 220 221 219 218 219
250 247 170 203 247 264 266 251 242 197 225 8 333 304 303 306 285 268 280 303 303 287 287 290 284 280 271 262 260 261 256 252 248 247 246 242 228 232 234 232 231 232 229 228 225 223 219 220 223
195 212 208 224 238 248 275 270 45 83 46 346 320 322 325 319 312 300 296 300 297 294 288 284 288 290 288 281 271 263 263 257 250 247 248 244 237 230 233 233 232 236 232 227 224 226 221 221 224
211 207 190 203 234 232 260 270 16 33 35 356 342 337 325 316 322 321 318 314 312 309 304 292 296 298 293 290 290 274 265 267 264 262 262 255 253 240 238 237 236 239 238 229 224 227 228 223 224